Torna al catalogo

STARLINK-32776

AttivoComunicazioniVLEO
NORAD 63032·PAYLOAD·🇺🇸 United States

Lanciato Feb 18, 2025 da Cape Canaveral Space Force Station

Loading…

Prossimi Passaggi (prossime 24 ore)

TLE

AggiornatoSource: CelesTrak SupGP

Epoca: Sep 14, 2026, 20:56 UTC

1 63032C 25034D   26257.87270833 -.00038600  00000+0 -11407-2 0  2578
2 63032  53.1578  95.9679 0001116  91.7464 130.7508 15.34403040    19

Traccia STARLINK-32776 in tempo reale con AllMySat

Download on the App Store